Flag for U.S.A. Weather past 2 weeks in Honolulu, Hawaii, U.S.A.

Now
88 °F

Scattered clouds.


Feels Like: 91 °F
Forecast: 73 / 85 °F
Wind: 13 mph from Northeast

Location: Honolulu International Airport

Current Time: Jul 4, 2015 at 5:17:54 PM

Latest Report: Jul 4, 2015 at 4:53 PM


Visibility: 10 mi

Pressure: 29.91 "Hg

Humidity: 50%

Dew point: 67 °F

Location of HonoluluLocation

Historic Weather in Honolulu — Graph

°F

Honolulu temperature yesterday

Maximum temperature yesterday: 92 °F (at 1:53 PM)
Minimum temperature yesterday: 78 °F (at 5:53 AM)
Average temperature yesterday: 83 °F

Past Weeks' High & Low Weather Summary

 TemperatureHumidityPressure
High92 °F (Jul 3, 1:53 PM)94% (Jun 28, 11:53 PM)30.06 "Hg (Jun 28, 11:53 PM)
Low73 °F (Jun 29, 5:53 AM)45% (Jun 22, 12:53 PM)29.85 "Hg (Jul 1, 3:53 PM)
Average81 °F67%29.97 "Hg
* Reported Jun 19 3:53 PM — Jul 4 3:53 PM, Honolulu, Weather by CustomWeather, © 2015

Note: Actual official high and low records may vary slightly from our data, if they occured in-between our weather recording intervals... More about our weather records

Advertising

Honolulu weather history for previous 24 hours

 ConditionsComfort  
Time TempWeatherWind HumidityBarometerVisibility
3:53 PM
Sat, Jul 4
89 °FScattered clouds.14 mph48%29.91 "Hg10 mi
2:53 PM89 °FScattered clouds.14 mph48%29.91 "Hg10 mi
1:53 PM88 °FScattered clouds.8 mph48%29.91 "Hg10 mi
12:53 PM89 °FScattered clouds.16 mph50%29.92 "Hg10 mi
11:53 AM88 °FScattered clouds.10 mph50%29.93 "Hg10 mi
10:53 AM85 °FScattered clouds.9 mph61%29.94 "Hg10 mi
9:53 AM85 °FScattered clouds.12 mph59%29.94 "Hg10 mi
8:53 AM85 °FScattered clouds.10 mph57%29.94 "Hg10 mi
7:53 AM82 °FScattered clouds.8 mph65%29.94 "Hg10 mi
6:53 AM78 °FScattered clouds.5 mph76%29.94 "Hg10 mi
5:53 AM75 °FPassing clouds.No wind82%29.93 "Hg10 mi
4:53 AM76 °FPassing clouds.3 mph80%29.92 "Hg10 mi
3:53 AM77 °FPassing clouds.5 mph77%29.91 "Hg10 mi
2:53 AM78 °FPassing clouds.7 mph74%29.91 "Hg10 mi
1:53 AM77 °FPassing clouds.6 mph77%29.92 "Hg10 mi
12:53 AM78 °FPassing clouds.8 mph74%29.94 "Hg10 mi
11:53 PM
Fri, Jul 3
79 °FPassing clouds.8 mph69%29.95 "Hg10 mi
10:53 PM80 °FPassing clouds.10 mph69%29.96 "Hg10 mi
9:53 PM80 °FPassing clouds.9 mph67%29.94 "Hg10 mi
8:53 PM81 °FPassing clouds.12 mph65%29.93 "Hg10 mi
7:53 PM82 °FPassing clouds.10 mph63%29.91 "Hg10 mi
6:53 PM83 °FScattered clouds.13 mph61%29.90 "Hg10 mi
5:53 PM85 °FBroken clouds.15 mph57%29.87 "Hg10 mi
Weather by CustomWeather, © 2015

See weather overviewHow to use our weather pages